"Sample Date","Sample Time","Sample Value","Units","Flow Rate","Sample Interval","Number Channels","Micron Size 0","Counts/Channel 0","Micron Size 1","Counts/Channel 1","Micron Size 2","Counts/Channel 2","Micron Size 3","Counts/Channel 3","Micron Size 4","Counts/Channel 4","Micron Size 5","Counts/Channel 5","Micron Size 6","Counts/Channel 6","Micron Size 7","Counts/Channel 7","Micron Size 8","Counts/Channel 8","Micron Size 9","Counts/Channel 9","Micron Size 10","Counts/Channel 10","Micron Size 11","Counts/Channel 11","Micron Size 12","Counts/Channel 12","Micron Size 13","Counts/Channel 13","Micron Size 14","Counts/Channel 14","Micron Size 15","Counts/Channel 15","Micron Size 16","Counts/Channel 16","Micron Size 17","Counts/Channel 17","Micron Size 18","Counts/Channel 18","Micron Size 19","Counts/Channel 19","Micron Size 20","Counts/Channel 20","Micron Size 21","Counts/Channel 21","Micron Size 22","Counts/Channel 22","Micron Size 23","Counts/Channel 23","Micron Size 24","Counts/Channel 24","Micron Size 25","Counts/Channel 25","Micron Size 26","Counts/Channel 26","Micron Size 27","Counts/Channel 27","Micron Size 28","Counts/Channel 28","Micron Size 29","Counts/Channel 29","Micron Size 30","Counts/Channel 30","Micron Size 31","Counts/Channel 31"
"04/01/08","20:00:00",18803.000,"cc",28218.486,6.00,6,0.100,17106.000,0.200,538.000,0.300,404.000,0.500,554.000,1.000,201.000,5.000,0
"04/01/08","20:00:06",18779.000,"cc",28257.098,6.00,6,0.100,17087.000,0.200,546.000,0.300,419.000,0.500,532.000,1.000,195.000,5.000,0
"04/01/08","20:00:12",18370.000,"cc",28351.440,6.00,6,0.100,16731.000,0.200,518.000,0.300,417.000,0.500,520.000,1.000,184.000,5.000,0
"04/01/08","20:00:18",18374.000,"cc",28324.789,6.00,6,0.100,16749.000,0.200,502.000,0.300,429.000,0.500,498.000,1.000,196.000,5.000,0
"04/01/08","20:00:24",18482.000,"cc",28361.440,6.00,6,0.100,16856.000,0.200,524.000,0.300,418.000,0.500,493.000,1.000,191.000,5.000,0
"04/01/08","20:00:30",18034.000,"cc",28182.324,6.00,6,0.100,16408.000,0.200,527.000,0.300,418.000,0.500,490.000,1.000,191.000,5.000,0
"04/01/08","20:00:36",18186.000,"cc",28287.992,6.00,6,0.100,16609.000,0.200,462.000,0.300,442.000,0.500,485.000,1.000,188.000,5.000,0
"04/01/08","20:00:42",18317.000,"cc",28277.592,6.00,6,0.100,16687.000,0.200,557.000,0.300,407.000,0.500,468.000,1.000,198.000,5.000,0
"04/01/08","20:00:48",18364.000,"cc",28304.881,6.00,6,0.100,16723.000,0.200,506.000,0.300,436.000,0.500,514.000,1.000,185.000,5.000,0
"04/01/08","20:00:54",18751.000,"cc",28396.631,6.00,6,0.100,17077.000,0.200,515.000,0.300,435.000,0.500,518.000,1.000,206.000,5.000,0
"04/01/08","20:01:00",18236.000,"cc",28262.963,6.00,6,0.100,16610.000,0.200,539.000,0.300,436.000,0.500,488.000,1.000,163.000,5.000,0
"04/01/08","20:01:06",18574.000,"cc",28295.289,6.00,6,0.100,16920.000,0.200,518.000,0.300,419.000,0.500,538.000,1.000,179.000,5.000,0
"04/01/08","20:01:12",18682.000,"cc",28322.322,6.00,6,0.100,17045.000,0.200,479.000,0.300,449.000,0.500,508.000,1.000,201.000,5.000,0
"04/01/08","20:01:18",18674.000,"cc",28270.623,6.00,6,0.100,17019.000,0.200,498.000,0.300,461.000,0.500,516.000,1.000,180.000,5.000,0
"04/01/08","20:01:24",18654.000,"cc",28348.023,6.00,6,0.100,16926.000,0.200,526.000,0.300,455.000,0.500,548.000,1.000,199.000,5.000,0
"04/01/08","20:01:30",18528.000,"cc",28382.889,6.00,6,0.100,16894.000,0.200,534.000,0.300,415.000,0.500,501.000,1.000,184.000,5.000,0
"04/01/08","20:01:36",18597.000,"cc",28254.811,6.00,6,0.100,16948.000,0.200,541.000,0.300,444.000,0.500,481.000,1.000,183.000,5.000,0
"04/01/08","20:01:42",18414.000,"cc",28333.902,6.00,6,0.100,16738.000,0.200,531.000,0.300,431.000,0.500,501.000,1.000,213.000,5.000,0
"04/01/08","20:01:48",18525.000,"cc",28294.701,6.00,6,0.100,16836.000,0.200,544.000,0.300,422.000,0.500,531.000,1.000,192.000,5.000,0
"04/01/08","20:01:54",18519.000,"cc",28378.113,6.00,6,0.100,16887.000,0.200,490.000,0.300,447.000,0.500,507.000,1.000,188.000,5.000,0
"04/01/08","20:02:00",18162.000,"cc",28340.113,6.00,6,0.100,16508.000,0.200,505.000,0.300,429.000,0.500,534.000,1.000,186.000,5.000,0
"04/01/08","20:02:06",18140.000,"cc",28475.691,6.00,6,0.100,16479.000,0.200,507.000,0.300,441.000,0.500,502.000,1.000,211.000,5.000,0
"04/01/08","20:02:12",17929.000,"cc",28247.758,6.00,6,0.100,16309.000,0.200,482.000,0.300,436.000,0.500,528.000,1.000,174.000,5.000,0
"04/01/08","20:02:18",18021.000,"cc",28370.732,6.00,6,0.100,16361.000,0.200,510.000,0.300,439.000,0.500,520.000,1.000,191.000,5.000,0
"04/01/08","20:02:24",18138.000,"cc",28319.186,6.00,6,0.100,16525.000,0.200,476.000,0.300,404.000,0.500,538.000,1.000,195.000,5.000,0
"04/01/08","20:02:30",18405.000,"cc",28321.912,6.00,6,0.100,16673.000,0.200,501.000,0.300,467.000,0.500,516.000,1.000,248.000,5.000,0
"04/01/08","20:02:36",18137.000,"cc",28316.381,6.00,6,0.100,16524.000,0.200,486.000,0.300,421.000,0.500,499.000,1.000,207.000,5.000,0
"04/01/08","20:02:42",18447.000,"cc",28319.537,6.00,6,0.100,16757.000,0.200,516.000,0.300,456.000,0.500,527.000,1.000,191.000,5.000,0
"04/01/08","20:02:48",18594.000,"cc",28308.307,6.00,6,0.100,16869.000,0.200,523.000,0.300,466.000,0.500,528.000,1.000,208.000,5.000,0
"04/01/08","20:02:54",18514.000,"cc",28370.414,6.00,6,0.100,16740.000,0.200,544.000,0.300,433.000,0.500,572.000,1.000,225.000,5.000,0
"04/01/08","20:03:00",18470.000,"cc",28286.121,6.00,6,0.100,16745.000,0.200,515.000,0.300,480.000,0.500,538.000,1.000,192.000,5.000,0
"04/01/08","20:03:06",18867.000,"cc",28242.869,6.00,6,0.100,16975.000,0.200,573.000,0.300,541.000,0.500,517.000,1.000,261.000,5.000,0
"04/01/08","20:03:12",18489.000,"cc",28357.037,6.00,6,0.100,16728.000,0.200,551.000,0.300,452.000,0.500,534.000,1.000,224.000,5.000,0
"04/01/08","20:03:18",18633.000,"cc",28383.500,6.00,6,0.100,16935.000,0.200,488.000,0.300,473.000,0.500,535.000,1.000,202.000,5.000,0
"04/01/08","20:03:24",18666.000,"cc",28208.164,6.00,6,0.100,16891.000,0.200,547.000,0.300,442.000,0.500,561.000,1.000,225.000,5.000,0
"04/01/08","20:03:30",18682.000,"cc",28321.109,6.00,6,0.100,16923.000,0.200,527.000,0.300,465.000,0.500,566.000,1.000,201.000,5.000,0
"04/01/08","20:03:36",18680.000,"cc",28276.754,6.00,6,0.100,16879.000,0.200,550.000,0.300,488.000,0.500,539.000,1.000,224.000,5.000,0
"04/01/08","20:03:42",18594.000,"cc",28251.121,6.00,6,0.100,16750.000,0.200,543.000,0.300,496.000,0.500,548.000,1.000,257.000,5.000,0
"04/01/08","20:03:48",18780.000,"cc",28310.316,6.00,6,0.100,16960.000,0.200,569.000,0.300,470.000,0.500,564.000,1.000,217.000,5.000,0
"04/01/08","20:03:54",18678.000,"cc",28324.010,6.00,6,0.100,16887.000,0.200,542.000,0.300,478.000,0.500,564.000,1.000,207.000,5.000,0
"04/01/08","20:04:00",19241.000,"cc",28243.857,6.00,6,0.100,17032.000,0.200,709.000,0.300,562.000,0.500,665.000,1.000,273.000,5.000,0
"04/01/08","20:04:06",18678.000,"cc",28306.971,6.00,6,0.100,16861.000,0.200,589.000,0.300,437.000,0.500,578.000,1.000,213.000,5.000,0
"04/01/08","20:04:12",18633.000,"cc",28304.467,6.00,6,0.100,16817.000,0.200,559.000,0.300,469.000,0.500,557.000,1.000,231.000,5.000,0
"04/01/08","20:04:18",18594.000,"cc",28303.988,6.00,6,0.100,16924.000,0.200,509.000,0.300,425.000,0.500,526.000,1.000,210.000,5.000,0
"04/01/08","20:04:24",18515.000,"cc",28338.406,6.00,6,0.100,16713.000,0.200,567.000,0.300,467.000,0.500,546.000,1.000,222.000,5.000,0
"04/01/08","20:04:30",18337.000,"cc",28284.938,6.00,6,0.100,16601.000,0.200,542.000,0.300,438.000,0.500,543.000,1.000,213.000,5.000,0
"04/01/08","20:04:36",18509.000,"cc",28246.693,6.00,6,0.100,16853.000,0.200,544.000,0.300,428.000,0.500,482.000,1.000,202.000,5.000,0
"04/01/08","20:04:42",19113.000,"cc",28337.820,6.00,6,0.100,17161.000,0.200,633.000,0.300,518.000,0.500,600.000,1.000,201.000,5.000,0
"04/01/08","20:04:48",19938.000,"cc",28347.469,6.00,6,0.100,17433.000,0.200,844.000,0.300,691.000,0.500,683.000,1.000,287.000,5.000,0
"04/01/08","20:04:54",18732.000,"cc",28347.748,6.00,6,0.100,16925.000,0.200,599.000,0.300,482.000,0.500,506.000,1.000,220.000,5.000,0
"04/01/08","20:05:00",18663.000,"cc",28346.504,6.00,6,0.100,16969.000,0.200,541.000,0.300,423.000,0.500,533.000,1.000,197.000,5.000,0
"04/01/08","20:05:06",18753.000,"cc",28206.256,6.00,6,0.100,16883.000,0.200,568.000,0.300,507.000,0.500,559.000,1.000,236.000,5.000,0
"04/01/08","20:05:12",18706.000,"cc",28266.670,6.00,6,0.100,16934.000,0.200,562.000,0.300,452.000,0.500,563.000,1.000,195.000,5.000,0
"04/01/08","20:05:18",18865.000,"cc",28329.867,6.00,6,0.100,17016.000,0.200,554.000,0.300,466.000,0.500,605.000,1.000,224.000,5.000,0
"04/01/08","20:05:24",20057.000,"cc",28392.773,6.00,6,0.100,18283.000,0.200,580.000,0.300,462.000,0.500,539.000,1.000,193.000,5.000,0
"04/01/08","20:05:30",21669.000,"cc",28279.688,6.00,6,0.100,19495.000,0.200,848.000,0.300,512.000,0.500,604.000,1.000,210.000,5.000,0
"04/01/08","20:05:36",19198.000,"cc",28346.510,6.00,6,0.100,17286.000,0.200,635.000,0.300,507.000,0.500,549.000,1.000,221.000,5.000,0
"04/01/08","20:05:42",22649.000,"cc",28346.881,6.00,6,0.100,20374.000,0.200,895.000,0.300,551.000,0.500,614.000,1.000,215.000,5.000,0
"04/01/08","20:05:48",19564.000,"cc",28303.926,6.00,6,0.100,17816.000,0.200,611.000,0.300,433.000,0.500,487.000,1.000,217.000,5.000,0
"04/01/08","20:05:54",18966.000,"cc",28323.787,6.00,6,0.100,17228.000,0.200,571.000,0.300,494.000,0.500,467.000,1.000,206.000,5.000,0
"04/01/08","20:06:00",19111.000,"cc",28295.231,6.00,6,0.100,17479.000,0.200,559.000,0.300,404.000,0.500,518.000,1.000,151.000,5.000,0
"04/01/08","20:06:06",19039.000,"cc",28266.910,6.00,6,0.100,17241.000,0.200,561.000,0.300,485.000,0.500,551.000,1.000,201.000,5.000,0
"04/01/08","20:06:12",19465.000,"cc",28347.869,6.00,6,0.100,17653.000,0.200,654.000,0.300,440.000,0.500,535.000,1.000,183.000,5.000,0
"04/01/08","20:06:18",18683.000,"cc",28310.010,6.00,6,0.100,17034.000,0.200,518.000,0.300,424.000,0.500,511.000,1.000,196.000,5.000,0
"04/01/08","20:06:24",18937.000,"cc",28294.701,6.00,6,0.100,17278.000,0.200,544.000,0.300,433.000,0.500,493.000,1.000,189.000,5.000,0
"04/01/08","20:06:30",19500.000,"cc",28299.160,6.00,6,0.100,17459.000,0.200,704.000,0.300,521.000,0.500,585.000,1.000,231.000,5.000,0
"04/01/08","20:06:36",19245.000,"cc",28296.871,6.00,6,0.100,17257.000,0.200,678.000,0.300,490.000,0.500,591.000,1.000,229.000,5.000,0
"04/01/08","20:06:42",19707.000,"cc",28364.981,6.00,6,0.100,17656.000,0.200,679.000,0.300,535.000,0.500,589.000,1.000,248.000,5.000,0
"04/01/08","20:06:48",19373.000,"cc",28338.516,6.00,6,0.100,17457.000,0.200,627.000,0.300,491.000,0.500,581.000,1.000,217.000,5.000,0
"04/01/08","20:06:54",18626.000,"cc",28373.904,6.00,6,0.100,16851.000,0.200,581.000,0.300,444.000,0.500,561.000,1.000,189.000,5.000,0
"04/01/08","20:07:00",18724.000,"cc",28310.953,6.00,6,0.100,16944.000,0.200,619.000,0.300,436.000,0.500,532.000,1.000,193.000,5.000,0
"04/01/08","20:07:06",18396.000,"cc",28325.135,6.00,6,0.100,16653.000,0.200,556.000,0.300,436.000,0.500,561.000,1.000,190.000,5.000,0
"04/01/08","20:07:12",18211.000,"cc",28333.387,6.00,6,0.100,16568.000,0.200,524.000,0.300,436.000,0.500,492.000,1.000,191.000,5.000,0
"04/01/08","20:07:18",18384.000,"cc",28339.336,6.00,6,0.100,16739.000,0.200,495.000,0.300,397.000,0.500,529.000,1.000,224.000,5.000,0
"04/01/08","20:07:24",18328.000,"cc",28303.490,6.00,6,0.100,16537.000,0.200,553.000,0.300,440.000,0.500,576.000,1.000,222.000,5.000,0
"04/01/08","20:07:30",18264.000,"cc",28254.535,6.00,6,0.100,16546.000,0.200,584.000,0.300,436.000,0.500,485.000,1.000,213.000,5.000,0
"04/01/08","20:07:36",18608.000,"cc",28371.190,6.00,6,0.100,16885.000,0.200,524.000,0.300,459.000,0.500,527.000,1.000,213.000,5.000,0
"04/01/08","20:07:42",18365.000,"cc",28330.873,6.00,6,0.100,16661.000,0.200,507.000,0.300,456.000,0.500,539.000,1.000,202.000,5.000,0
"04/01/08","20:07:48",18606.000,"cc",28326.279,6.00,6,0.100,16877.000,0.200,531.000,0.300,432.000,0.500,530.000,1.000,236.000,5.000,0
"04/01/08","20:07:54",18486.000,"cc",28242.041,6.00,6,0.100,16803.000,0.200,490.000,0.300,446.000,0.500,543.000,1.000,204.000,5.000,0
"04/01/08","20:08:00",18540.000,"cc",28394.834,6.00,6,0.100,16786.000,0.200,534.000,0.300,427.000,0.500,545.000,1.000,248.000,5.000,0
"04/01/08","20:08:06",18644.000,"cc",28392.195,6.00,6,0.100,16861.000,0.200,549.000,0.300,442.000,0.500,549.000,1.000,243.000,5.000,0
"04/01/08","20:08:12",18228.000,"cc",28447.930,6.00,6,0.100,16584.000,0.200,484.000,0.300,421.000,0.500,535.000,1.000,204.000,5.000,0
"04/01/08","20:08:18",18352.000,"cc",28291.783,6.00,6,0.100,16702.000,0.200,533.000,0.300,420.000,0.500,477.000,1.000,220.000,5.000,0
"04/01/08","20:08:24",18252.000,"cc",28291.266,6.00,6,0.100,16579.000,0.200,528.000,0.300,415.000,0.500,519.000,1.000,211.000,5.000,0
"04/01/08","20:08:30",17838.000,"cc",28395.117,6.00,6,0.100,16278.000,0.200,468.000,0.300,413.000,0.500,472.000,1.000,207.000,5.000,0
"04/01/08","20:08:36",18106.000,"cc",28331.387,6.00,6,0.100,16425.000,0.200,498.000,0.300,460.000,0.500,529.000,1.000,194.000,5.000,0
"04/01/08","20:08:42",18199.000,"cc",28263.941,6.00,6,0.100,16532.000,0.200,507.000,0.300,450.000,0.500,512.000,1.000,198.000,5.000,0
"04/01/08","20:08:48",18275.000,"cc",28110.229,6.00,6,0.100,16499.000,0.200,568.000,0.300,482.000,0.500,532.000,1.000,194.000,5.000,0
"04/01/08","20:08:54",18205.000,"cc",28324.223,6.00,6,0.100,16475.000,0.200,514.000,0.300,456.000,0.500,547.000,1.000,213.000,5.000,0
"04/01/08","20:09:00",17810.000,"cc",28434.535,6.00,6,0.100,16228.000,0.200,508.000,0.300,395.000,0.500,499.000,1.000,180.000,5.000,0
"04/01/08","20:09:06",17888.000,"cc",28362.584,6.00,6,0.100,16235.000,0.200,481.000,0.300,445.000,0.500,505.000,1.000,222.000,5.000,0
"04/01/08","20:09:12",18185.000,"cc",28290.369,6.00,6,0.100,16523.000,0.200,486.000,0.300,430.000,0.500,548.000,1.000,198.000,5.000,0
"04/01/08","20:09:18",18330.000,"cc",28390.131,6.00,6,0.100,16629.000,0.200,536.000,0.300,410.000,0.500,547.000,1.000,208.000,5.000,0
"04/01/08","20:09:24",18296.000,"cc",28340.014,6.00,6,0.100,16469.000,0.200,529.000,0.300,471.000,0.500,594.000,1.000,233.000,5.000,0
"04/01/08","20:09:30",18129.000,"cc",28323.783,6.00,6,0.100,16374.000,0.200,532.000,0.300,457.000,0.500,534.000,1.000,232.000,5.000,0
"04/01/08","20:09:36",17887.000,"cc",28307.113,6.00,6,0.100,16165.000,0.200,531.000,0.300,413.000,0.500,576.000,1.000,202.000,5.000,0
"04/01/08","20:09:42",17867.000,"cc",28227.635,6.00,6,0.100,16237.000,0.200,524.000,0.300,426.000,0.500,467.000,1.000,213.000,5.000,0
"04/01/08","20:09:48",18043.000,"cc",28206.430,6.00,6,0.100,16440.000,0.200,483.000,0.300,406.000,0.500,479.000,1.000,235.000,5.000,0
"04/01/08","20:09:54",18069.000,"cc",28337.084,6.00,6,0.100,16323.000,0.200,528.000,0.300,452.000,0.500,553.000,1.000,213.000,5.000,0
"04/01/08","20:10:00",18108.000,"cc",28383.848,6.00,6,0.100,16390.000,0.200,547.000,0.300,434.000,0.500,549.000,1.000,188.000,5.000,0
"04/01/08","20:10:06",17996.000,"cc",28356.598,6.00,6,0.100,16255.000,0.200,557.000,0.300,455.000,0.500,515.000,1.000,214.000,5.000,0
"04/01/08","20:10:12",18045.000,"cc",28337.684,6.00,6,0.100,16274.000,0.200,526.000,0.300,444.000,0.500,581.000,1.000,220.000,5.000,0
"04/01/08","20:10:18",18069.000,"cc",28363.074,6.00,6,0.100,16382.000,0.200,508.000,0.300,442.000,0.500,520.000,1.000,217.000,5.000,0
"04/01/08","20:10:24",18147.000,"cc",28286.908,6.00,6,0.100,16480.000,0.200,508.000,0.300,445.000,0.500,527.000,1.000,187.000,5.000,0
"04/01/08","20:10:30",18017.000,"cc",28292.666,6.00,6,0.100,16325.000,0.200,523.000,0.300,464.000,0.500,527.000,1.000,178.000,5.000,0
"04/01/08","20:10:36",18114.000,"cc",28275.975,6.00,6,0.100,16471.000,0.200,515.000,0.300,428.000,0.500,504.000,1.000,196.000,5.000,0
"04/01/08","20:10:42",18000.000,"cc",28292.656,6.00,6,0.100,16201.000,0.200,579.000,0.300,467.000,0.500,537.000,1.000,216.000,5.000,0
"04/01/08","20:10:48",18480.000,"cc",28397.445,6.00,6,0.100,16538.000,0.200,595.000,0.300,524.000,0.500,591.000,1.000,232.000,5.000,0
"04/01/08","20:10:54",17987.000,"cc",28285.350,6.00,6,0.100,16200.000,0.200,571.000,0.300,438.000,0.500,562.000,1.000,216.000,5.000,0
"04/01/08","20:11:00",18305.000,"cc",28320.682,6.00,6,0.100,16555.000,0.200,505.000,0.300,502.000,0.500,513.000,1.000,230.000,5.000,0
"04/01/08","20:11:06",17975.000,"cc",28254.695,6.00,6,0.100,16368.000,0.200,501.000,0.300,417.000,0.500,492.000,1.000,197.000,5.000,0
"04/01/08","20:11:12",17800.000,"cc",28308.660,6.00,6,0.100,16295.000,0.200,466.000,0.300,403.000,0.500,459.000,1.000,177.000,5.000,0
"04/01/08","20:11:18",18152.000,"cc",28312.920,6.00,6,0.100,16483.000,0.200,528.000,0.300,407.000,0.500,510.000,1.000,224.000,5.000,0
"04/01/08","20:11:24",17794.000,"cc",28383.854,6.00,6,0.100,16143.000,0.200,512.000,0.300,423.000,0.500,527.000,1.000,189.000,5.000,0
"04/01/08","20:11:30",17710.000,"cc",28257.068,6.00,6,0.100,16159.000,0.200,479.000,0.300,394.000,0.500,468.000,1.000,210.000,5.000,0
"04/01/08","20:11:36",17939.000,"cc",28232.920,6.00,6,0.100,16291.000,0.200,511.000,0.300,391.000,0.500,522.000,1.000,224.000,5.000,0
"04/01/08","20:11:42",17739.000,"cc",28312.066,6.00,6,0.100,16172.000,0.200,476.000,0.300,394.000,0.500,518.000,1.000,179.000,5.000,0
"04/01/08","20:11:48",18014.000,"cc",28360.436,6.00,6,0.100,16282.000,0.200,559.000,0.300,426.000,0.500,515.000,1.000,232.000,5.000,0
"04/01/08","20:11:54",17989.000,"cc",28382.953,6.00,6,0.100,16276.000,0.200,540.000,0.300,442.000,0.500,527.000,1.000,204.000,5.000,0
"04/01/08","20:12:00",17600.000,"cc",28274.951,6.00,6,0.100,15976.000,0.200,488.000,0.300,421.000,0.500,519.000,1.000,196.000,5.000,0
"04/01/08","20:12:06",17724.000,"cc",28325.449,6.00,6,0.100,16153.000,0.200,433.000,0.300,430.000,0.500,485.000,1.000,223.000,5.000,0
"04/01/08","20:12:12",17672.000,"cc",28352.877,6.00,6,0.100,16050.000,0.200,460.000,0.300,433.000,0.500,515.000,1.000,214.000,5.000,0
"04/01/08","20:12:18",17820.000,"cc",28319.266,6.00,6,0.100,16193.000,0.200,497.000,0.300,422.000,0.500,491.000,1.000,217.000,5.000,0
"04/01/08","20:12:24",17749.000,"cc",28289.424,6.00,6,0.100,16120.000,0.200,511.000,0.300,411.000,0.500,513.000,1.000,194.000,5.000,0
"04/01/08","20:12:30",17665.000,"cc",28314.721,6.00,6,0.100,15985.000,0.200,472.000,0.300,445.000,0.500,539.000,1.000,224.000,5.000,0
"04/01/08","20:12:36",17650.000,"cc",28281.336,6.00,6,0.100,15970.000,0.200,540.000,0.300,423.000,0.500,519.000,1.000,198.000,5.000,0
"04/01/08","20:12:42",17471.000,"cc",28309.316,6.00,6,0.100,15873.000,0.200,540.000,0.300,394.000,0.500,489.000,1.000,175.000,5.000,0
"04/01/08","20:12:48",17377.000,"cc",28282.791,6.00,6,0.100,15719.000,0.200,515.000,0.300,410.000,0.500,518.000,1.000,215.000,5.000,0
"04/01/08","20:12:54",17963.000,"cc",28327.432,6.00,6,0.100,16245.000,0.200,556.000,0.300,450.000,0.500,523.000,1.000,189.000,5.000,0
"04/01/08","20:13:00",17331.000,"cc",28306.590,6.00,6,0.100,15736.000,0.200,520.000,0.300,395.000,0.500,515.000,1.000,165.000,5.000,0
"04/01/08","20:13:06",17634.000,"cc",28302.647,6.00,6,0.100,16024.000,0.200,480.000,0.300,390.000,0.500,520.000,1.000,220.000,5.000,0
"04/01/08","20:13:12",17617.000,"cc",28305.682,6.00,6,0.100,16066.000,0.200,484.000,0.300,392.000,0.500,482.000,1.000,193.000,5.000,0
"04/01/08","20:13:18",17324.000,"cc",28378.164,6.00,6,0.100,15696.000,0.200,499.000,0.300,422.000,0.500,529.000,1.000,178.000,5.000,0
"04/01/08","20:13:24",17217.000,"cc",28329.762,6.00,6,0.100,15746.000,0.200,480.000,0.300,372.000,0.500,459.000,1.000,160.000,5.000,0
"04/01/08","20:13:30",17087.000,"cc",28332.293,6.00,6,0.100,15518.000,0.200,494.000,0.300,383.000,0.500,492.000,1.000,200.000,5.000,0
"04/01/08","20:13:36",16872.000,"cc",28309.195,6.00,6,0.100,15374.000,0.200,443.000,0.300,380.000,0.500,484.000,1.000,191.000,5.000,0
"04/01/08","20:13:42",16869.000,"cc",28289.889,6.00,6,0.100,15453.000,0.200,449.000,0.300,338.000,0.500,454.000,1.000,175.000,5.000,0
"04/01/08","20:13:48",17433.000,"cc",28295.811,6.00,6,0.100,15911.000,0.200,515.000,0.300,344.000,0.500,480.000,1.000,183.000,5.000,0
"04/01/08","20:13:54",18249.000,"cc",28228.055,6.00,6,0.100,16600.000,0.200,586.000,0.300,397.000,0.500,482.000,1.000,184.000,5.000,0
"04/01/08","20:14:00",17018.000,"cc",28388.375,6.00,6,0.100,15454.000,0.200,504.000,0.300,382.000,0.500,484.000,1.000,194.000,5.000,0
"04/01/08","20:14:06",17184.000,"cc",28385.488,6.00,6,0.100,15654.000,0.200,465.000,0.300,417.000,0.500,463.000,1.000,185.000,5.000,0
"04/01/08","20:14:12",17510.000,"cc",28330.273,6.00,6,0.100,15967.000,0.200,471.000,0.300,428.000,0.500,486.000,1.000,158.000,5.000,0
"04/01/08","20:14:18",16918.000,"cc",28364.834,6.00,6,0.100,15379.000,0.200,450.000,0.300,447.000,0.500,478.000,1.000,164.000,5.000,0
"04/01/08","20:14:24",17282.000,"cc",28319.565,6.00,6,0.100,15667.000,0.200,496.000,0.300,439.000,0.500,481.000,1.000,199.000,5.000,0
"04/01/08","20:14:30",17116.000,"cc",28333.787,6.00,6,0.100,15476.000,0.200,462.000,0.300,451.000,0.500,516.000,1.000,211.000,5.000,0
"04/01/08","20:14:36",16857.000,"cc",28370.010,6.00,6,0.100,15374.000,0.200,511.000,0.300,370.000,0.500,436.000,1.000,166.000,5.000,0
"04/01/08","20:14:42",17057.000,"cc",28297.898,6.00,6,0.100,15641.000,0.200,421.000,0.300,369.000,0.500,455.000,1.000,171.000,5.000,0
"04/01/08","20:14:48",17131.000,"cc",28264.315,6.00,6,0.100,15642.000,0.200,456.000,0.300,395.000,0.500,463.000,1.000,175.000,5.000,0
"04/01/08","20:14:54",17296.000,"cc",28235.098,6.00,6,0.100,15724.000,0.200,505.000,0.300,398.000,0.500,495.000,1.000,174.000,5.000,0
"04/01/08","20:15:00",17406.000,"cc",28352.631,6.00,6,0.100,15798.000,0.200,487.000,0.300,410.000,0.500,499.000,1.000,212.000,5.000,0
"04/01/08","20:15:06",17391.000,"cc",28308.162,6.00,6,0.100,15792.000,0.200,476.000,0.300,422.000,0.500,517.000,1.000,184.000,5.000,0
"04/01/08","20:15:12",17762.000,"cc",28264.607,6.00,6,0.100,16101.000,0.200,512.000,0.300,409.000,0.500,518.000,1.000,222.000,5.000,0
"04/01/08","20:15:18",17828.000,"cc",28320.436,6.00,6,0.100,16109.000,0.200,504.000,0.300,477.000,0.500,529.000,1.000,209.000,5.000,0
"04/01/08","20:15:24",18021.000,"cc",28389.727,6.00,6,0.100,16450.000,0.200,477.000,0.300,389.000,0.500,525.000,1.000,180.000,5.000,0
"04/01/08","20:15:30",17787.000,"cc",28267.066,6.00,6,0.100,16143.000,0.200,490.000,0.300,439.000,0.500,485.000,1.000,230.000,5.000,0
"04/01/08","20:15:36",17745.000,"cc",28276.629,6.00,6,0.100,16085.000,0.200,514.000,0.300,426.000,0.500,519.000,1.000,201.000,5.000,0
"04/01/08","20:15:42",17406.000,"cc",28286.527,6.00,6,0.100,16019.000,0.200,430.000,0.300,355.000,0.500,415.000,1.000,187.000,5.000,0
"04/01/08","20:15:48",17167.000,"cc",28358.076,6.00,6,0.100,15692.000,0.200,444.000,0.300,355.000,0.500,500.000,1.000,176.000,5.000,0
"04/01/08","20:15:54",17445.000,"cc",28314.471,6.00,6,0.100,15934.000,0.200,494.000,0.300,404.000,0.500,423.000,1.000,190.000,5.000,0
"04/01/08","20:16:00",17378.000,"cc",28322.967,6.00,6,0.100,15830.000,0.200,476.000,0.300,417.000,0.500,472.000,1.000,183.000,5.000,0
"04/01/08","20:16:06",18432.000,"cc",28367.107,6.00,6,0.100,16239.000,0.200,720.000,0.300,611.000,0.500,619.000,1.000,243.000,5.000,0
"04/01/08","20:16:12",17470.000,"cc",28361.842,6.00,6,0.100,15790.000,0.200,547.000,0.300,427.000,0.500,505.000,1.000,201.000,5.000,0
"04/01/08","20:16:18",17258.000,"cc",28371.275,6.00,6,0.100,15759.000,0.200,497.000,0.300,401.000,0.500,429.000,1.000,172.000,5.000,0
"04/01/08","20:16:24",17307.000,"cc",28342.537,6.00,6,0.100,15851.000,0.200,433.000,0.300,381.000,0.500,457.000,1.000,185.000,5.000,0
"04/01/08","20:16:30",17575.000,"cc",28292.012,6.00,6,0.100,16068.000,0.200,463.000,0.300,421.000,0.500,452.000,1.000,171.000,5.000,0
"04/01/08","20:16:36",17526.000,"cc",28242.545,6.00,6,0.100,15960.000,0.200,463.000,0.300,409.000,0.500,499.000,1.000,195.000,5.000,0
"04/01/08","20:16:42",17439.000,"cc",28294.488,6.00,6,0.100,15797.000,0.200,523.000,0.300,420.000,0.500,511.000,1.000,188.000,5.000,0